Time,TemperatureF,DewpointF,PressureIn,WindDirection,WindDirectionDegrees,WindSpeedMPH,WindSpeedGustMPH,Humidity,HourlyPrecipIn,Conditions,Clouds,dailyrainin,SoftwareType,DateUTC
2013-05-15 00:09:00,45.4,31.0,30.00,SE,129,0.0,0.0,57,0.00,,,0.00,weatherlink.com 1.10,2013-05-15 07:09:00,
2013-05-15 00:24:00,44.4,30.0,30.00,SE,131,0.0,1.0,58,0.00,,,0.00,weatherlink.com 1.10,2013-05-15 07:24:00,
2013-05-15 00:39:00,44.2,30.0,30.00,SE,124,1.0,1.0,59,0.00,,,0.00,weatherlink.com 1.10,2013-05-15 07:39:00,
2013-05-15 00:54:00,43.8,31.0,30.00,ESE,118,0.0,1.0,60,0.00,,,0.00,weatherlink.com 1.10,2013-05-15 07:54:00,
2013-05-15 01:09:00,44.5,30.0,30.00,NNE,23,0.0,2.0,57,0.00,,,0.00,weatherlink.com 1.10,2013-05-15 08:09:00,
2013-05-15 01:24:00,44.0,30.0,30.00,NE,42,0.0,0.0,58,0.00,,,0.00,weatherlink.com 1.10,2013-05-15 08:24:00,
2013-05-15 01:39:00,44.1,30.0,29.99,East,83,1.0,1.0,58,0.00,,,0.00,weatherlink.com 1.10,2013-05-15 08:39:00,
2013-05-15 01:54:00,43.6,29.0,29.99,SE,129,0.0,2.0,57,0.00,,,0.00,weatherlink.com 1.10,2013-05-15 08:54:00,
2013-05-15 02:09:00,44.2,29.0,29.99,ESE,110,0.0,2.0,56,0.00,,,0.00,weatherlink.com 1.10,2013-05-15 09:09:00,
2013-05-15 02:24:00,44.4,29.0,29.99,ESE,113,0.0,0.0,56,0.00,,,0.00,weatherlink.com 1.10,2013-05-15 09:24:00,
2013-05-15 02:40:00,44.4,29.0,29.98,SE,141,0.0,1.0,56,0.00,,,0.00,weatherlink.com 1.10,2013-05-15 09:40:00,
2013-05-15 02:55:00,43.9,29.0,29.98,SE,141,0.0,0.0,57,0.00,,,0.00,weatherlink.com 1.10,2013-05-15 09:55:00,
2013-05-15 03:10:00,43.7,29.0,29.98,SE,139,0.0,0.0,57,0.00,,,0.00,weatherlink.com 1.10,2013-05-15 10:10:00,
2013-05-15 03:25:00,43.3,29.0,29.99,SE,139,0.0,1.0,58,0.00,,,0.00,weatherlink.com 1.10,2013-05-15 10:25:00,
2013-05-15 03:40:00,43.7,30.0,29.98,SE,135,0.0,1.0,58,0.00,,,0.00,weatherlink.com 1.10,2013-05-15 10:40:00,
2013-05-15 03:55:00,43.8,30.0,29.98,ESE,122,0.0,0.0,58,0.00,,,0.00,weatherlink.com 1.10,2013-05-15 10:55:00,
2013-05-15 04:10:00,42.9,29.0,29.98,ESE,123,0.0,0.0,59,0.00,,,0.00,weatherlink.com 1.10,2013-05-15 11:10:00,
2013-05-15 04:25:00,43.1,29.0,29.98,ESE,123,0.0,0.0,58,0.00,,,0.00,weatherlink.com 1.10,2013-05-15 11:25:00,
2013-05-15 04:40:00,42.5,29.0,29.98,SE,124,0.0,1.0,60,0.00,,,0.00,weatherlink.com 1.10,2013-05-15 11:40:00,
2013-05-15 04:55:00,41.8,29.0,29.98,SE,129,0.0,1.0,62,0.00,,,0.00,weatherlink.com 1.10,2013-05-15 11:55:00,
2013-05-15 05:10:00,41.5,29.0,29.98,ESE,123,0.0,1.0,62,0.00,,,0.00,weatherlink.com 1.10,2013-05-15 12:10:00,
2013-05-15 05:25:00,41.1,29.0,29.98,ESE,120,0.0,2.0,63,0.00,,,0.00,weatherlink.com 1.10,2013-05-15 12:25:00,
2013-05-15 05:55:00,41.2,29.0,29.97,ESE,107,0.0,0.0,63,0.00,,,0.00,weatherlink.com 1.10,2013-05-15 12:55:00,
2013-05-15 06:10:00,40.7,30.0,29.98,SE,132,0.0,0.0,66,0.00,,,0.00,weatherlink.com 1.10,2013-05-15 13:10:00,
2013-05-15 06:40:00,42.9,32.0,29.98,ESE,122,0.0,4.0,65,0.00,,,0.00,weatherlink.com 1.10,2013-05-15 13:40:00,
2013-05-15 06:55:00,43.0,32.0,29.98,SSE,158,0.0,1.0,66,0.00,,,0.00,weatherlink.com 1.10,2013-05-15 13:55:00,
2013-05-15 07:10:00,43.6,32.0,29.98,ESE,120,3.0,5.0,65,0.00,,,0.00,weatherlink.com 1.10,2013-05-15 14:10:00,
2013-05-15 07:25:00,44.6,33.0,29.97,SE,146,0.0,0.0,65,0.00,,,0.00,weatherlink.com 1.10,2013-05-15 14:25:00,
2013-05-15 07:40:00,44.9,34.0,29.97,SSW,201,1.0,2.0,65,0.00,,,0.00,weatherlink.com 1.10,2013-05-15 14:40:00,
2013-05-15 07:56:00,46.6,34.0,29.97,SSE,163,0.0,2.0,61,0.00,,,0.00,weatherlink.com 1.10,2013-05-15 14:56:00,
2013-05-15 08:10:00,48.3,35.0,29.97,SE,140,0.0,1.0,60,0.00,,,0.00,weatherlink.com 1.10,2013-05-15 15:10:00,
2013-05-15 08:25:00,48.9,34.0,29.96,SSW,203,1.0,4.0,57,0.00,,,0.00,weatherlink.com 1.10,2013-05-15 15:25:00,
2013-05-15 08:40:00,49.1,34.0,29.96,South,187,2.0,3.0,57,0.00,,,0.00,weatherlink.com 1.10,2013-05-15 15:40:00,
2013-05-15 08:55:00,49.5,35.0,29.96,West,273,0.0,3.0,57,0.00,,,0.00,weatherlink.com 1.10,2013-05-15 15:55:00,
2013-05-15 09:10:00,50.7,36.0,29.95,NNW,327,1.0,5.0,58,0.00,,,0.00,weatherlink.com 1.10,2013-05-15 16:10:00,
2013-05-15 09:25:00,52.0,37.0,29.94,North,352,2.0,3.0,56,0.00,,,0.00,weatherlink.com 1.10,2013-05-15 16:25:00,
2013-05-15 09:40:00,53.6,37.0,29.94,WNW,288,3.0,5.0,53,0.00,,,0.00,weatherlink.com 1.10,2013-05-15 16:40:00,
2013-05-15 10:26:00,54.4,36.0,29.93,West,260,4.0,8.0,50,0.00,,,0.00,weatherlink.com 1.10,2013-05-15 17:26:00,
2013-05-15 11:11:00,56.6,36.0,29.92,NW,311,1.0,7.0,46,0.00,,,0.00,weatherlink.com 1.10,2013-05-15 18:11:00,
2013-05-15 11:26:00,57.0,35.0,29.92,WNW,301,5.0,7.0,44,0.00,,,0.00,weatherlink.com 1.10,2013-05-15 18:26:00,
2013-05-15 11:56:00,57.6,34.0,29.92,NNW,329,4.0,8.0,42,0.00,,,0.00,weatherlink.com 1.10,2013-05-15 18:56:00,
2013-05-15 12:11:00,57.9,34.0,29.92,NW,310,3.0,8.0,41,0.00,,,0.00,weatherlink.com 1.10,2013-05-15 19:11:00,
2013-05-15 12:26:00,58.8,33.0,29.91,NNE,16,5.0,8.0,38,0.00,,,0.00,weatherlink.com 1.10,2013-05-15 19:26:00,
2013-05-15 12:41:00,58.3,33.0,29.90,West,281,5.0,9.0,39,0.00,,,0.00,weatherlink.com 1.10,2013-05-15 19:41:00,
2013-05-15 12:56:00,57.1,33.0,29.91,WNW,290,3.0,10.0,40,0.00,,,0.00,weatherlink.com 1.10,2013-05-15 19:56:00,
2013-05-15 13:26:00,57.1,32.0,29.90,NNW,338,4.0,8.0,39,0.00,,,0.00,weatherlink.com 1.10,2013-05-15 20:26:00,
2013-05-15 13:41:00,57.7,31.0,29.89,NW,312,4.0,10.0,37,0.00,,,0.00,weatherlink.com 1.10,2013-05-15 20:41:00,
2013-05-15 13:56:00,57.0,33.0,29.89,NNW,328,4.0,8.0,40,0.00,,,0.00,weatherlink.com 1.10,2013-05-15 20:56:00,
2013-05-15 14:11:00,56.3,33.0,29.90,West,280,4.0,11.0,42,0.00,,,0.00,weatherlink.com 1.10,2013-05-15 21:11:00,
2013-05-15 14:26:00,55.9,33.0,29.90,NNW,332,3.0,9.0,42,0.00,,,0.00,weatherlink.com 1.10,2013-05-15 21:26:00,
2013-05-15 14:41:00,55.8,35.0,29.90,NNW,332,4.0,9.0,46,0.00,,,0.00,weatherlink.com 1.10,2013-05-15 21:41:00,
2013-05-15 14:56:00,54.6,37.0,29.90,NNW,336,3.0,10.0,51,0.00,,,0.00,weatherlink.com 1.10,2013-05-15 21:56:00,
2013-05-15 15:41:00,51.6,39.0,29.91,WNW,300,1.0,6.0,63,0.00,,,0.00,weatherlink.com 1.10,2013-05-15 22:41:00,
2013-05-15 16:11:00,52.0,42.0,29.90,NW,314,6.0,7.0,69,0.00,,,0.00,weatherlink.com 1.10,2013-05-15 23:11:00,
2013-05-15 16:26:00,52.4,40.0,29.90,North,5,3.0,6.0,63,0.00,,,0.00,weatherlink.com 1.10,2013-05-15 23:26:00,
2013-05-15 16:41:00,51.9,40.0,29.90,NNE,23,5.0,9.0,65,0.00,,,0.00,weatherlink.com 1.10,2013-05-15 23:41:00,
2013-05-15 16:56:00,50.8,41.0,29.91,NW,312,2.0,8.0,68,0.00,,,0.00,weatherlink.com 1.10,2013-05-15 23:56:00,
2013-05-15 17:11:00,48.8,42.0,29.91,NW,325,2.0,6.0,76,0.02,,,0.02,weatherlink.com 1.10,2013-05-16 00:11:00,
2013-05-15 17:26:00,50.0,43.0,29.91,NW,312,4.0,8.0,78,0.02,,,0.02,weatherlink.com 1.10,2013-05-16 00:26:00,
2013-05-15 17:42:00,52.2,43.0,29.90,NNE,22,5.0,8.0,72,0.02,,,0.02,weatherlink.com 1.10,2013-05-16 00:42:00,
2013-05-15 18:11:00,51.7,41.0,29.90,West,276,7.0,7.0,68,0.00,,,0.02,weatherlink.com 1.10,2013-05-16 01:11:00,
2013-05-15 18:26:00,50.6,41.0,29.91,NW,308,4.0,6.0,71,0.00,,,0.02,weatherlink.com 1.10,2013-05-16 01:26:00,
2013-05-15 18:41:00,50.3,42.0,29.90,NW,316,3.0,11.0,72,0.00,,,0.02,weatherlink.com 1.10,2013-05-16 01:41:00,
2013-05-15 18:56:00,50.2,41.0,29.90,WNW,290,6.0,11.0,70,0.00,,,0.02,weatherlink.com 1.10,2013-05-16 01:56:00,
2013-05-15 19:11:00,50.7,41.0,29.90,WNW,293,3.0,8.0,69,0.00,,,0.02,weatherlink.com 1.10,2013-05-16 02:11:00,
2013-05-15 19:26:00,50.3,41.0,29.90,WNW,302,5.0,10.0,70,0.00,,,0.02,weatherlink.com 1.10,2013-05-16 02:26:00,
2013-05-15 19:56:00,48.8,40.0,29.91,WNW,291,3.0,6.0,73,0.00,,,0.02,weatherlink.com 1.10,2013-05-16 02:56:00,
2013-05-15 20:11:00,48.1,41.0,29.91,West,271,2.0,5.0,75,0.00,,,0.02,weatherlink.com 1.10,2013-05-16 03:11:00,
2013-05-15 20:41:00,47.1,40.0,29.92,NW,311,3.0,7.0,75,0.00,,,0.02,weatherlink.com 1.10,2013-05-16 03:41:00,
2013-05-15 20:56:00,46.5,40.0,29.92,WNW,286,2.0,8.0,77,0.00,,,0.02,weatherlink.com 1.10,2013-05-16 03:56:00,
2013-05-15 21:11:00,45.9,40.0,29.93,WNW,283,4.0,6.0,79,0.00,,,0.02,weatherlink.com 1.10,2013-05-16 04:11:00,
2013-05-15 21:26:00,45.3,40.0,29.93,NW,305,2.0,6.0,80,0.00,,,0.02,weatherlink.com 1.10,2013-05-16 04:26:00,
2013-05-15 21:41:00,44.8,39.0,29.93,WNW,295,2.0,6.0,81,0.00,,,0.02,weatherlink.com 1.10,2013-05-16 04:41:00,
2013-05-15 21:56:00,44.5,39.0,29.93,WNW,297,3.0,5.0,82,0.00,,,0.02,weatherlink.com 1.10,2013-05-16 04:56:00,
2013-05-15 22:11:00,44.1,39.0,29.94,NW,319,1.0,3.0,83,0.00,,,0.02,weatherlink.com 1.10,2013-05-16 05:11:00,
2013-05-15 22:26:00,44.0,39.0,29.94,West,278,2.0,3.0,83,0.00,,,0.02,weatherlink.com 1.10,2013-05-16 05:26:00,
2013-05-15 22:41:00,43.8,39.0,29.94,NW,307,2.0,3.0,83,0.00,,,0.02,weatherlink.com 1.10,2013-05-16 05:41:00,
2013-05-15 22:57:00,43.9,39.0,29.94,WNW,302,0.0,3.0,83,0.00,,,0.02,weatherlink.com 1.10,2013-05-16 05:57:00,
2013-05-15 23:12:00,44.0,39.0,29.94,WNW,297,0.0,3.0,83,0.00,,,0.02,weatherlink.com 1.10,2013-05-16 06:12:00,
2013-05-15 23:27:00,43.9,39.0,29.94,NW,318,0.0,2.0,83,0.00,,,0.02,weatherlink.com 1.10,2013-05-16 06:27:00,
2013-05-15 23:42:00,43.7,39.0,29.94,North,10,0.0,2.0,83,0.00,,,0.02,weatherlink.com 1.10,2013-05-16 06:42:00,
2013-05-15 23:57:00,43.3,39.0,29.94,NNE,12,0.0,1.0,84,0.00,,,0.02,weatherlink.com 1.10,2013-05-16 06:57:00,